Kankakee, IL

4:16 PM CDT on April 28, 2017 (GMT -0500)
Greater Kankakee

Weather History for KIKK - November, 2013

Change the Weather History Date:

Monday, November 18, 2013

  Actual Average Record
Temperature  
Mean Temperature 38 °F -  
Max Temperature 44 °F 49 °F 69 °F (1979)
Min Temperature 31 °F 29 °F 11 °F (2014)
Degree Days  
Heating Degree Days 28    
Moisture  
Dew Point 31 °F    
Average Humidity 75    
Maximum Humidity 89    
Minimum Humidity 55    
Precipitation  
Precipitation 0.00 in - - ()
Sea Level Pressure  
Sea Level Pressure 30.05 in    
Wind  
Wind Speed 14 mph (West)    
Max Wind Speed 25 mph    
Max Gust Speed 32 mph    
Visibility 10 miles    
Events      
Averages and records for this station are not official NWS values.
T = Trace of Precipitation, MM = Missing Value Source: NWS Daily Summary

Daily Weather History Graph

Daily Weather History Graph

Search for Another Location

Airport or City:

Trip Planner

Search our weather history database for the weather conditions in past years. The results will help you decide how hot, cold, wet, or windy it might be!

Date:

Astronomy

Nov. 18, 2013 Rise Set
Actual Time 6:42 AM CST 4:29 PM CST
Civil Twilight 6:13 AM CST 4:59 PM CST
Nautical Twilight 5:39 AM CST 5:33 PM CST
Astronomical Twilight 5:06 AM CST 6:05 PM CST
Moon 5:31 PM CST (11/18) 7:31 AM CST (11/18)
Length of Visible Light 10h 46m
Length of Day
9h 47m
Full, 99% of the Moon is Illuminated
Nov 18
Full
Nov 25
Last Quarter
Dec 2
New
Dec 9
First Quarter
Dec 17
Full

Hourly Weather History & Observations

Time (CST) Temp. Windchill Dew Point Humidity Pressure Visibility Wind Dir Wind Speed Gust Speed Precip Events Conditions
12:15 AM 41.9 °F 35.0 °F 36.0 °F 79% 29.82 in 10.0 mi West 12.7 mph - N/A   Clear
12:35 AM 40.6 °F 33.4 °F 36.0 °F 83% 29.82 in 10.0 mi WSW 12.7 mph - N/A   Clear
12:55 AM 41.0 °F 33.5 °F 36.3 °F 83% 29.83 in 10.0 mi WSW 13.8 mph - N/A   Clear
1:15 AM 41.2 °F 34.1 °F 36.5 °F 83% 29.83 in 10.0 mi West 12.7 mph 19.6 mph N/A   Clear
1:35 AM 40.3 °F 33.4 °F 36.5 °F 86% 29.84 in 10.0 mi WSW 11.5 mph - N/A   Clear
1:55 AM 40.3 °F 33.0 °F 36.9 °F 88% 29.84 in 10.0 mi West 12.7 mph - N/A   Clear
2:15 AM 40.3 °F 33.0 °F 37.4 °F 89% 29.84 in 10.0 mi WSW 12.7 mph - N/A   Clear
2:35 AM 40.6 °F 32.7 °F 37.4 °F 88% 29.85 in 10.0 mi WSW 15.0 mph 21.9 mph N/A   Clear
2:55 AM 40.8 °F 32.6 °F 36.7 °F 85% 29.86 in 10.0 mi WSW 16.1 mph 21.9 mph N/A   Clear
3:15 AM 40.3 °F 32.6 °F 36.5 °F 86% 29.87 in 10.0 mi West 13.8 mph - N/A   Clear
3:35 AM 39.7 °F 31.2 °F 35.2 °F 84% 29.87 in 10.0 mi West 16.1 mph 20.7 mph N/A   Clear
3:55 AM 39.2 °F 31.2 °F 34.0 °F 82% 29.88 in 10.0 mi West 13.8 mph 20.7 mph N/A   Clear
4:15 AM 39.0 °F 30.6 °F 33.3 °F 80% 29.88 in 10.0 mi West 15.0 mph - N/A   Clear
4:35 AM 38.5 °F 30.3 °F 32.9 °F 80% 29.89 in 10.0 mi West 13.8 mph 18.4 mph N/A   Clear
4:55 AM 38.3 °F 30.5 °F 32.9 °F 81% 29.89 in 10.0 mi West 12.7 mph - N/A   Clear
5:15 AM 37.8 °F 29.4 °F 33.3 °F 84% 29.90 in 10.0 mi West 13.8 mph - N/A   Clear
5:35 AM 37.4 °F 28.9 °F 33.3 °F 85% 29.90 in 10.0 mi West 13.8 mph - N/A   Clear
5:55 AM 37.2 °F 29.6 °F 32.9 °F 84% 29.91 in 10.0 mi West 11.5 mph 20.7 mph N/A   Clear
6:15 AM 37.0 °F 28.5 °F 32.9 °F 85% 29.91 in 10.0 mi West 13.8 mph 19.6 mph N/A   Clear
6:35 AM 36.5 °F 28.2 °F 32.7 °F 86% 29.92 in 10.0 mi West 12.7 mph 18.4 mph N/A   Clear
6:55 AM 36.0 °F 27.5 °F 32.4 °F 87% 29.94 in 10.0 mi West 12.7 mph - N/A   Clear
7:15 AM 37.0 °F 28.1 °F 32.4 °F 83% 29.94 in 10.0 mi West 15.0 mph 23.0 mph N/A   Clear
7:35 AM 37.9 °F 28.5 °F 32.4 °F 80% 29.95 in 10.0 mi West 17.3 mph 21.9 mph N/A   Clear
7:55 AM 38.5 °F 29.9 °F 33.1 °F 81% 29.96 in 10.0 mi West 15.0 mph 23.0 mph N/A   Clear
8:15 AM 39.2 °F 30.5 °F 33.8 °F 81% 29.97 in 10.0 mi West 16.1 mph 20.7 mph N/A   Scattered Clouds
8:35 AM 39.4 °F 29.2 °F 33.4 °F 79% 29.99 in 10.0 mi West 21.9 mph 27.6 mph N/A   Mostly Cloudy
8:55 AM 39.6 °F 29.2 °F 32.2 °F 75% 30.00 in 10.0 mi West 23.0 mph 32.2 mph N/A   Mostly Cloudy
9:15 AM 40.6 °F 30.2 °F 32.4 °F 72% 30.01 in 10.0 mi West 25.3 mph 32.2 mph N/A   Mostly Cloudy
9:35 AM 41.4 °F 31.4 °F 32.9 °F 72% 30.02 in 10.0 mi West 24.2 mph 28.8 mph N/A   Overcast
9:55 AM 41.4 °F 32.7 °F 32.4 °F 70% 30.03 in 10.0 mi West 18.4 mph 25.3 mph N/A   Mostly Cloudy
10:15 AM 40.8 °F 32.0 °F 32.2 °F 71% 30.04 in 10.0 mi West 18.4 mph 26.5 mph N/A   Mostly Cloudy
10:35 AM 40.8 °F 32.0 °F 32.2 °F 71% 30.04 in 10.0 mi West 18.4 mph 26.5 mph N/A   Mostly Cloudy
10:55 AM 41.9 °F 32.6 °F 32.0 °F 68% 30.04 in 10.0 mi West 21.9 mph 27.6 mph N/A   Scattered Clouds
11:15 AM 42.6 °F 34.6 °F 32.9 °F 68% 30.04 in 10.0 mi West 17.3 mph 27.6 mph N/A   Clear
11:35 AM 42.8 °F 33.8 °F 32.2 °F 66% 30.04 in 10.0 mi West 21.9 mph 28.8 mph N/A   Scattered Clouds
11:55 AM 43.3 °F 34.7 °F 32.2 °F 65% 30.04 in 10.0 mi West 20.7 mph 26.5 mph N/A   Scattered Clouds
12:15 PM 44.2 °F 35.9 °F 32.7 °F 64% 30.05 in 10.0 mi West 20.7 mph 25.3 mph N/A   Scattered Clouds
12:35 PM 44.4 °F 36.4 °F 32.2 °F 62% 30.05 in 10.0 mi West 19.6 mph 27.6 mph N/A   Scattered Clouds
12:55 PM 43.9 °F 35.2 °F 30.9 °F 60% 30.06 in 10.0 mi West 21.9 mph 27.6 mph N/A   Scattered Clouds
1:15 PM 44.6 °F 35.5 °F 31.8 °F 61% 30.06 in 10.0 mi West 25.3 mph 29.9 mph N/A   Scattered Clouds
1:35 PM 44.6 °F 35.7 °F 31.3 °F 60% 30.07 in 10.0 mi West 24.2 mph 32.2 mph N/A   Scattered Clouds
1:55 PM 44.6 °F 36.1 °F 29.7 °F 56% 30.07 in 10.0 mi WNW 21.9 mph 28.8 mph N/A   Scattered Clouds
2:15 PM 44.2 °F 36.4 °F 29.1 °F 55% 30.08 in 10.0 mi WNW 18.4 mph 29.9 mph N/A   Clear
2:35 PM 44.6 °F 36.6 °F 30.9 °F 59% 30.09 in 10.0 mi WNW 19.6 mph 27.6 mph N/A   Scattered Clouds
2:55 PM 43.9 °F 35.2 °F 30.0 °F 58% 30.09 in 10.0 mi West 21.9 mph 28.8 mph N/A   Scattered Clouds
3:15 PM 43.3 °F 35.8 °F 29.3 °F 58% 30.11 in 10.0 mi WNW 16.1 mph 26.5 mph N/A   Clear
3:35 PM 42.8 °F 34.8 °F 29.1 °F 58% 30.11 in 10.0 mi West 17.3 mph 24.2 mph N/A   Clear
3:55 PM 42.1 °F 33.6 °F 27.7 °F 57% 30.12 in 10.0 mi WNW 18.4 mph 24.2 mph N/A   Clear
4:15 PM 41.0 °F 33.9 °F 28.9 °F 62% 30.13 in 10.0 mi WNW 12.7 mph 25.3 mph N/A   Clear
4:35 PM 40.1 °F 32.4 °F 28.6 °F 63% 30.14 in 10.0 mi West 13.8 mph 21.9 mph N/A   Clear
4:55 PM 39.7 °F 32.3 °F 27.0 °F 60% 30.15 in 10.0 mi WNW 12.7 mph 17.3 mph N/A   Clear
5:15 PM 39.2 °F 33.6 °F 26.6 °F 61% 30.16 in 10.0 mi WNW 8.1 mph - N/A   Clear
5:35 PM 38.3 °F 32.5 °F 26.6 °F 63% 30.16 in 10.0 mi WNW 8.1 mph - N/A   Clear
5:55 PM 37.4 °F 31.4 °F 26.6 °F 65% 30.17 in 10.0 mi WNW 8.1 mph - N/A   Clear
6:15 PM 34.9 °F 30.8 °F 27.3 °F 74% 30.18 in 10.0 mi West 4.6 mph - N/A   Clear
6:35 PM 34.3 °F 29.2 °F 28.0 °F 78% 30.18 in 10.0 mi West 5.8 mph - N/A   Clear
6:55 PM 34.2 °F 29.0 °F 27.9 °F 78% 30.19 in 10.0 mi West 5.8 mph - N/A   Clear
7:15 PM 32.0 °F 28.7 °F 27.5 °F 83% 30.20 in 10.0 mi West 3.5 mph - N/A   Clear
7:35 PM 32.0 °F 26.4 °F 27.9 °F 85% 30.20 in 10.0 mi West 5.8 mph - N/A   Clear
7:55 PM 31.6 °F 26.0 °F 27.7 °F 85% 30.20 in 10.0 mi WNW 5.8 mph - N/A   Clear
8:15 PM 32.5 °F 27.1 °F 27.3 °F 81% 30.20 in 10.0 mi West 5.8 mph - N/A   Clear
8:35 PM 32.9 °F 28.5 °F 27.5 °F 81% 30.22 in 10.0 mi West 4.6 mph - N/A   Clear
8:55 PM 31.6 °F 27.0 °F 27.1 °F 83% 30.22 in 10.0 mi West 4.6 mph - N/A   Clear
9:15 PM 31.3 °F - 27.1 °F 85% 30.22 in 10.0 mi Calm Calm - N/A   Clear
9:35 PM 32.7 °F 28.3 °F 26.6 °F 78% 30.23 in 10.0 mi WNW 4.6 mph - N/A   Clear
9:55 PM 32.5 °F 28.1 °F 26.4 °F 78% 30.23 in 10.0 mi WNW 4.6 mph - N/A   Clear
10:15 PM 32.0 °F 26.4 °F 26.2 °F 79% 30.23 in 10.0 mi WNW 5.8 mph - N/A   Clear
10:35 PM 31.6 °F 27.0 °F 25.9 °F 79% 30.24 in 10.0 mi West 4.6 mph - N/A   Clear
10:55 PM 31.5 °F 24.9 °F 26.1 °F 80% 30.24 in 10.0 mi WNW 6.9 mph - N/A   Clear
11:15 PM 32.0 °F 27.5 °F 26.1 °F 79% 30.26 in 10.0 mi NW 4.6 mph - N/A   Clear
11:35 PM 32.0 °F 27.5 °F 25.7 °F 78% 30.26 in 10.0 mi NW 4.6 mph - N/A   Clear
11:55 PM 31.8 °F 27.3 °F 25.7 °F 78% 30.27 in 10.0 mi NW 4.6 mph - N/A   Clear